This demonstration page uses our WeatherBlox Daily Observations layout. Learn more.

40.92945, -100.16068

Hourly Observations for January 2, 2020

Temp ( °F °C ) Dew Point ( °F °C ) Humidity (%) Winds ( mph kmh ) Pressure ( in mb ) Visibility ( mi km ) Precip ( " mm )
12:15 am 00:15 Clear 30 -1.1 28 -2.1 93 93 WNW 8 13 29.53 1000 10 16.0934 0 0
12:35 am 00:35 Clear 30 -0.9 28 -2 92 92 WNW 8 13 29.53 1000 10 16.0934 0 0
12:55 am 00:55 Clear 30 -1.2 28 -2.3 92 92 WNW 12 19 29.54 1000 10 16.0934 0 0
1:15 am 01:15 Clear 30 -1.1 28 -2.5 90 90 WNW 9 15 29.55 1001 10 16.0934 0 0
1:35 am 01:35 Clear 29 -1.6 27 -2.6 93 93 WNW 9 15 29.55 1001 10 16.0934 0 0
1:55 am 01:55 Clear 28 -2 26 -3.1 92 92 WNW 9 15 29.56 1001 10 16.0934 0 0
2:15 am 02:15 Clear 28 -2.5 26 -3.3 94 94 WNW 9 15 29.57 1001 10 16.0934 0 0
2:35 am 02:35 Clear 27 -2.6 26 -3.5 94 94 NW 8 13 29.57 1001 10 16.0934 0 0
2:55 am 02:55 Clear 27 -2.9 25 -3.9 93 93 NW 5 7 29.57 1001 10 16.0934 0 0
3:15 am 03:15 Clear 28 -2.1 26 -3.5 90 90 WNW 9 15 29.57 1001 10 16.0934 0 0
3:35 am 03:35 Clear 29 -1.5 26 -3.1 89 89 WNW 9 15 29.57 1001 10 16.0934 0 0
3:55 am 03:55 Clear 31 -0.6 27 -2.6 87 87 WNW 10 17 29.58 1002 10 16.0934 0 0
4:15 am 04:15 Clear 30 -1.2 27 -3 88 88 WNW 12 19 29.59 1002 10 16.0934 0 0
4:35 am 04:35 Clear 28 -2 26 -3.5 90 90 WNW 12 19 29.61 1003 10 16.0934 0 0
4:55 am 04:55 Clear 28 -2.2 26 -3.6 90 90 WNW 12 19 29.62 1003 10 16.0934 0 0
5:15 am 05:15 Clear 28 -2.5 25 -3.8 91 91 WNW 9 15 29.64 1004 10 16.0934 0 0
5:35 am 05:35 Clear 27 -2.6 25 -4 90 90 WNW 10 17 29.64 1004 10 16.0934 0 0
5:55 am 05:55 Clear 27 -3 24 -4.2 92 92 WNW 8 13 29.65 1004 10 16.0934 0 0
6:15 am 06:15 Clear 26 -3.2 24 -4.5 91 91 WNW 13 20 29.67 1005 10 16.0934 0 0
6:35 am 06:35 Clear 26 -3.3 24 -4.7 90 90 WNW 9 15 29.67 1005 10 16.0934 0 0
6:55 am 06:55 Clear 26 -3.3 23 -4.8 90 90 WNW 12 19 29.68 1005 10 16.0934 0 0
7:15 am 07:15 Clear 26 -3.6 23 -5 90 90 WNW 12 19 29.7 1006 10 16.0934 0 0
7:35 am 07:35 Clear 26 -3.2 23 -4.8 89 89 WNW 10 17 29.72 1006 10 16.0934 0 0
7:55 am 07:55 Clear 26 -3.6 23 -5 90 90 WNW 10 17 29.73 1007 10 16.0934 0 0
8:15 am 08:15 Mostly Cloudy 27 -3 25 -4.1 92 92 WNW 10 17 29.74 1007 10 16.0934 0 0
8:35 am 08:35 Cloudy 28 -2.4 26 -3.4 93 93 WNW 8 13 29.74 1007 10 16.0934 0 0
8:55 am 08:55 Cloudy 28 -2.3 26 -3.4 92 92 W 5 7 29.75 1007 10 16.0934 0 0
9:15 am 09:15 Cloudy 30 -1.2 28 -2.1 94 94 WNW 7 11 29.75 1007 10 16.0934 0 0
9:35 am 09:35 Cloudy 31 -0.7 29 -1.4 95 95 NW 5 7 29.75 1008 10 16.0934 0 0
9:55 am 09:55 Cloudy 34 1.3 32 0.2 92 92 NNW 12 19 29.74 1007 10 16.0934 0 0
10:15 am 10:15 Cloudy 35 1.8 33 0.5 91 91 NNW 9 15 29.75 1007 10 16.0934 0 0
10:35 am 10:35 Cloudy 36 2 33 0.5 90 90 NW 8 13 29.76 1008 10 16.0934 0 0
10:55 am 10:55 Partly Cloudy 36 2.4 33 0.7 89 89 WNW 7 11 29.75 1008 10 16.0934 0 0
11:15 am 11:15 Partly Cloudy 37 2.5 33 0.7 88 88 WNW 10 17 29.75 1008 10 16.0934 0 0
11:35 am 11:35 Mostly Cloudy 37 2.9 33 0.8 86 86 WNW 8 13 29.75 1007 10 16.0934 0 0
11:55 am 11:55 Cloudy 37 2.8 33 0.7 86 86 WNW 8 13 29.75 1007 10 16.0934 0 0
12:15 pm 12:15 Mostly Cloudy 37 2.9 33 0.7 86 86 WNW 12 19 29.75 1007 10 16.0934 0 0
12:35 pm 12:35 Mostly Cloudy 38 3.1 33 0.7 84 84 NW 12 19 29.74 1007 10 16.0934 0 0
12:55 pm 12:55 Cloudy 37 3 33 0.7 85 85 NW 6 9 29.74 1007 10 16.0934 0 0
1:15 pm 13:15 Cloudy 38 3.3 33 0.6 83 83 NNW 10 17 29.72 1007 10 16.0934 0 0
1:35 pm 13:35 Cloudy 38 3.1 33 0.5 83 83 NW 12 19 29.74 1007 10 16.0934 0 0
1:55 pm 13:55 Cloudy 38 3.3 33 0.5 82 82 NNW 12 19 29.72 1007 10 16.0934 0 0
2:15 pm 14:15 Cloudy 38 3.3 33 0.4 82 82 NNW 6 9 29.72 1007 10 16.0934 0 0
2:35 pm 14:35 Cloudy 37 3 33 0.5 84 84 NNW 6 9 29.74 1007 10 16.0934 0 0
2:55 pm 14:55 Cloudy 38 3.2 33 0.7 84 84 NNW 6 9 29.73 1007 10 16.0934 0 0
3:15 pm 15:15 Cloudy 38 3.2 33 0.8 84 84 NW 8 13 29.74 1007 10 16.0934 0 0
3:35 pm 15:35 Partly Cloudy 38 3.5 33 0.5 81 81 NW 7 11 29.74 1007 10 16.0934 0 0
3:55 pm 15:55 Sunny 38 3.5 33 0.6 82 82 NW 8 13 29.75 1008 10 16.0934 0 0
4:15 pm 16:15 Sunny 37 3 33 0.7 85 85 WNW 7 11 29.77 1008 10 16.0934 0 0
4:35 pm 16:35 Sunny 37 2.6 33 0.6 87 87 WNW 6 9 29.77 1008 10 16.0934 0 0
4:55 pm 16:55 Sunny 36 2.1 33 0.3 88 88 W 5 7 29.79 1009 10 16.0934 0 0
5:15 pm 17:15 Sunny 36 2.1 32 0.2 87 87 WNW 5 7 29.79 1009 10 16.0934 0 0
5:35 pm 17:35 Clear 34 0.9 32 -0.1 93 93 W 6 9 29.82 1010 10 16.0934 0 0
5:55 pm 17:55 Clear 33 0.3 31 -0.5 94 94 WNW 7 11 29.82 1010 10 16.0934 0 0
6:15 pm 18:15 Clear 32 0 30 -0.9 94 94 W 5 7 29.84 1010 10 16.0934 0 0
6:35 pm 18:35 Clear 32 -0.1 30 -1.1 93 93 SW 7 11 29.85 1011 10 16.0934 0 0
6:55 pm 18:55 Clear 32 -0.2 30 -1.1 94 94 WSW 5 7 29.85 1011 10 16.0934 0 0
7:15 pm 19:15 Clear 31 -0.5 30 -1.3 94 94 W 3 6 29.85 1011 10 16.0934 0 0
7:35 pm 19:35 Clear 30 -1.1 29 -1.7 96 96 W 5 7 29.88 1012 10 16.0934 0 0
7:55 pm 19:55 Clear 30 -1.2 29 -1.8 96 96 W 9 15 29.88 1012 10 16.0934 0 0
8:15 pm 20:15 Clear 30 -1.2 29 -1.9 95 95 W 7 11 29.88 1012 10 16.0934 0 0
8:35 pm 20:35 Clear 29 -1.4 28 -2.1 95 95 W 6 9 29.89 1012 10 16.0934 0 0
8:50 pm 20:50 Partly Cloudy 29 -1.9 28 -2.4 96 96 W 7 11 29.9 1012 10 16.0934 0 0
9:15 pm 21:15 Partly Cloudy 28 -2.1 27 -2.6 96 96 WNW 8 13 29.9 1012 10 16.0934 0 0
9:35 pm 21:35 Mostly Cloudy 29 -1.9 28 -2.4 96 96 WNW 8 13 29.91 1013 10 16.0934 0 0
9:55 pm 21:55 Cloudy 29 -1.5 29 -1.9 97 97 NW 6 9 29.9 1013 10 16.0934 0 0
10:15 pm 22:15 Cloudy 29 -1.8 28 -2.2 97 97 WNW 6 9 29.92 1013 10 16.0934 0 0
10:35 pm 22:35 Partly Cloudy 28 -2.5 27 -2.9 97 97 WNW 7 11 29.93 1014 10 16.0934 0 0
10:55 pm 22:55 Clear 28 -2.2 27 -2.7 96 96 WNW 7 11 29.93 1013 10 16.0934 0 0
11:15 pm 23:15 Clear 27 -2.9 26 -3.4 96 96 NW 7 11 29.94 1014 10 16.0934 0 0
11:35 pm 23:35 Clear 28 -2.2 27 -2.8 96 96 WNW 8 13 29.94 1014 10 16.0934 0 0
11:55 pm 23:55 Clear 27 -2.7 26 -3.3 96 96 NNW 7 11 29.93 1014 10 16.0934 0 0

Powered by AerisWeather